Waarnemingen

Advertentie
Mijn weer
Dunkerque, Frankrijk (7010): temperatuur & dauwpunt: 14.05.2019 04:00:00 - 20.05.2019 04:00:00 (CEST)Dunkerque, Frankrijk (7010): windsnelheid & windstoten: 14.05.2019 04:00:00 - 20.05.2019 04:00:00 (CEST)Dunkerque, Frankrijk (7010): windrichting: 14.05.2019 04:00:00 - 20.05.2019 04:00:00 (CEST)Dunkerque, Frankrijk (7010): luchtdruk: 14.05.2019 04:00:00 - 20.05.2019 04:00:00 (CEST)Dunkerque, Frankrijk (7010): zicht: 14.05.2019 04:00:00 - 20.05.2019 04:00:00 (CEST)Dunkerque, Frankrijk (7010): neerslag: 14.05.2019 04:00:00 - 20.05.2019 04:00:00 (CEST)
Datum & Tijd tt [°C] td [°C] ff [km/u] ff [kn] fx [km/u] fx [kn] dd ppp [hPa] vv [km] rr [mm]
20.05.2019 04:00:00 11,1 9,4 23 12 31 17 NNW 1009,6 - 0,0
20.05.2019 03:00:00 11,4 9,8 21 11 29 16 N 1009,8 - 0,0
20.05.2019 02:00:00 11,4 9,8 16 9 28 15 N 1010,1 - 0,0
20.05.2019 01:00:00 11,3 9,7 19 10 31 17 N 1010,2 - 0,0
20.05.2019 00:00:00 11,5 9,9 16 9 30 16 N 1010,2 - 0,0
19.05.2019 23:00:00 11,6 9,8 22 12 29 16 NNO 1010,1 - 0,0
19.05.2019 22:00:00 11,9 9,6 14 8 26 14 N 1010,0 - 0,0
19.05.2019 21:00:00 11,9 9,5 15 8 26 14 N 1009,6 - 0,0
19.05.2019 20:00:00 11,8 10,0 16 9 25 13 NW 1009,1 - 0,2
19.05.2019 19:00:00 11,6 9,8 16 9 24 13 NNW 1009,1 - 0,0
19.05.2019 18:00:00 12,0 10,1 18 10 26 14 NNW 1009,3 - 0,0
19.05.2019 17:00:00 12,3 10,5 17 9 27 14 N 1009,5 8 0,0
19.05.2019 16:00:00 12,1 10,3 18 10 27 15 N 1009,2 - 0,0
19.05.2019 15:00:00 12,0 10,4 16 9 26 14 N 1009,2 - 0,2
19.05.2019 14:00:00 12,0 10,4 16 8 22 12 N 1009,5 - 0,6
19.05.2019 13:00:00 11,8 9,9 17 9 26 14 NNO 1009,5 - 0,6
19.05.2019 12:00:00 12,0 10,1 23 12 29 16 NNO 1009,3 - 0,6
19.05.2019 11:00:00 12,1 10,0 22 12 34 18 NNO 1009,1 - 0,2
19.05.2019 10:00:00 11,9 10,3 26 14 34 19 NNO 1008,6 - 1,0
19.05.2019 09:00:00 12,2 10,6 22 12 29 15 NNO 1008,4 - 0,8
19.05.2019 08:00:00 12,5 10,6 21 12 27 14 NNO 1008,1 6 0,0
19.05.2019 07:00:00 12,2 10,4 21 11 29 16 NNO 1007,7 - 0,0
19.05.2019 06:00:00 12,2 10,4 16 9 24 13 N 1007,5 - 0,0
19.05.2019 05:00:00 12,3 10,7 16 9 21 12 N 1007,6 10 0,2
19.05.2019 04:00:00 12,5 10,4 13 7 18 10 N 1007,9 - 0,6
19.05.2019 03:00:00 12,8 10,3 3 2 13 7 NNO 1008,2 - 0,2
19.05.2019 02:00:00 13,0 9,8 8 5 22 12 ONO 1008,2 - 0,0
19.05.2019 01:00:00 13,2 10,0 18 10 24 13 ONO 1007,9 - 0,0
19.05.2019 00:00:00 13,1 10,3 19 11 26 14 ONO 1007,9 - 0,0
18.05.2019 23:00:00 13,3 10,1 16 9 24 13 ONO 1008,1 6 0,0
18.05.2019 22:00:00 13,3 10,3 14 8 24 13 ONO 1007,9 - 0,0
18.05.2019 21:00:00 13,5 10,3 16 9 23 13 NO 1007,4 - 0,0
18.05.2019 20:00:00 13,7 9,7 17 9 26 14 NO 1007,2 - 0,0
18.05.2019 19:00:00 14,0 10,4 19 11 27 15 NNO 1006,9 - 0,0
18.05.2019 18:00:00 14,7 10,5 20 11 26 14 NNO 1006,7 - 0,0
18.05.2019 17:00:00 15,2 10,4 19 10 26 14 NNO 1006,6 2,0 0,0
18.05.2019 16:00:00 14,9 10,7 18 10 21 12 NO 1006,9 - 0,0
18.05.2019 15:00:00 16,0 10,5 16 9 22 12 NNO 1006,7 - 0,0
18.05.2019 14:00:00 14,9 9,7 16 9 19 11 NNO 1006,5 - 0,0
18.05.2019 13:00:00 15,3 9,4 14 8 17 9 NNO 1006,7 - 0,0
18.05.2019 12:00:00 15,1 9,5 14 8 16 9 NNO 1006,4 - 0,0
18.05.2019 11:00:00 14,3 8,9 12 7 16 9 NNO 1006,4 7 0,0
18.05.2019 10:00:00 14,9 8,4 6 3 8 4 ONO 1006,3 - 0,0
18.05.2019 09:00:00 13,8 8,4 5 3 9 5 ZO 1005,9 - 0,0
18.05.2019 08:00:00 12,2 8,7 6 3 9 5 ZZO 1005,9 - 0,0
18.05.2019 07:00:00 11,8 8,5 4 2 7 4 OZO 1005,5 - 0,0
18.05.2019 06:00:00 11,6 8,4 2 1 8 4 O 1005,3 - 0,0
18.05.2019 05:00:00 11,8 8,6 6 4 11 6 OZO 1005,6 8 0,0
18.05.2019 04:00:00 11,9 8,6 10 6 13 7 OZO 1005,8 - 0,0
18.05.2019 03:00:00 12,0 8,5 8 4 13 7 OZO 1006,0 - 0,0
18.05.2019 02:00:00 12,3 8,9 9 5 14 8 O 1006,1 - 0,0
18.05.2019 01:00:00 12,5 9,1 11 6 17 9 ONO 1006,2 - 0,0
18.05.2019 00:00:00 12,5 9,3 15 8 19 10 ONO 1006,3 - 0,0
17.05.2019 23:00:00 12,4 9,2 15 8 22 12 ONO 1006,4 6 0,0
17.05.2019 22:00:00 12,4 9,4 17 9 27 14 ONO 1006,5 - 0,0
17.05.2019 21:00:00 12,3 8,9 19 11 27 15 NO 1006,3 - 0,0
17.05.2019 20:00:00 12,5 9,0 19 10 28 15 NO 1006,4 - 0,0
17.05.2019 19:00:00 12,7 8,6 20 11 28 15 NO 1006,5 - 0,0
17.05.2019 18:00:00 13,3 8,8 22 12 28 15 NO 1006,7 - 0,0
17.05.2019 17:00:00 13,5 8,8 21 12 29 16 NO 1006,9 10 0,0
17.05.2019 16:00:00 13,6 8,4 24 13 28 15 NNO 1007,1 - 0,0
17.05.2019 15:00:00 13,4 8,5 22 12 27 15 NO 1007,4 - 0,0
17.05.2019 14:00:00 13,7 8,5 20 11 26 14 NO 1007,3 - 0,0
17.05.2019 13:00:00 13,3 8,6 21 11 25 13 NO 1007,2 - 0,0
17.05.2019 12:00:00 12,2 8,3 20 11 25 13 ONO 1007,4 - 0,0
17.05.2019 11:00:00 12,3 8,4 16 9 23 12 ONO 1007,6 - 0,0
17.05.2019 10:00:00 11,5 8,7 13 7 21 12 O 1008,1 - 0,0
17.05.2019 09:00:00 11,2 8,2 17 9 29 16 O 1008,3 - 0,0
17.05.2019 08:00:00 11,4 7,9 23 12 30 16 ONO 1008,5 - 0,0
17.05.2019 07:00:00 11,9 8,0 21 11 27 15 ONO 1008,6 - 0,0
17.05.2019 06:00:00 12,0 8,3 21 11 29 15 NO 1008,5 - 0,0
17.05.2019 05:00:00 12,2 8,1 22 12 34 18 ONO 1009,0 - 0,0
17.05.2019 04:00:00 12,2 8,8 24 13 34 19 NO 1009,4 - 0,0
17.05.2019 03:00:00 12,4 9,4 24 13 31 17 NO 1010,1 - 0,0
17.05.2019 02:00:00 12,7 10,1 23 13 32 17 NO 1011,1 10 0,0
17.05.2019 01:00:00 12,9 9,9 23 13 30 16 NO 1011,6 - 0,0
17.05.2019 00:00:00 12,7 9,7 21 12 32 17 NO 1012,7 - 0,0
16.05.2019 23:00:00 12,4 9,6 23 12 35 19 NO 1013,1 - 0,0
16.05.2019 22:00:00 12,3 9,3 30 16 38 20 NO 1013,4 - 0,0
16.05.2019 21:00:00 12,7 9,1 30 16 43 23 NO 1013,8 - 0,0
16.05.2019 20:00:00 13,2 8,7 38 20 49 27 NNO 1014,3 - 0,0
16.05.2019 19:00:00 13,5 7,0 33 18 44 24 NNO 1014,8 - 0,0
16.05.2019 18:00:00 14,2 5,5 34 18 44 24 NNO 1015,6 - 0,0
16.05.2019 17:00:00 14,6 5,9 36 19 46 25 NO 1016,3 - 0,0
16.05.2019 16:00:00 14,6 6,4 35 19 44 24 NNO 1017,1 - 0,0
16.05.2019 15:00:00 14,8 5,0 32 17 41 22 NO 1017,9 - 0,0
16.05.2019 14:00:00 14,6 5,4 30 16 38 20 NNO 1018,6 15 0,0
16.05.2019 13:00:00 14,6 5,7 29 16 36 19 NO 1018,9 - 0,0
16.05.2019 12:00:00 14,5 7,1 26 14 33 18 NO 1019,6 - 0,0
16.05.2019 11:00:00 14,0 6,8 23 13 29 16 NO 1020,0 - 0,0
16.05.2019 10:00:00 13,5 5,9 15 8 21 12 NO 1020,4 - 0,0
16.05.2019 09:00:00 13,0 4,9 15 8 22 12 ONO 1020,7 - 0,0
16.05.2019 08:00:00 11,6 4,6 19 10 23 13 O 1020,6 20 0,0
16.05.2019 07:00:00 11,0 4,4 18 10 28 15 O 1020,7 - 0,0
16.05.2019 06:00:00 10,9 4,8 16 9 27 14 O 1020,7 - 0,0
16.05.2019 05:00:00 11,0 5,7 14 8 20 11 O 1021,0 18 0,0
16.05.2019 04:00:00 11,3 6,0 14 8 24 13 O 1021,4 - 0,0
16.05.2019 03:00:00 12,1 6,6 19 11 27 15 O 1021,9 - 0,0
16.05.2019 02:00:00 12,3 8,0 22 12 28 15 O 1022,0 15 0,0
16.05.2019 01:00:00 12,6 10,0 23 12 34 19 ONO 1022,4 - 0,0
16.05.2019 00:00:00 12,5 9,1 29 16 36 20 NO 1022,9 - 0,0
15.05.2019 23:00:00 12,5 8,0 24 13 36 20 NO 1023,2 - 0,0
15.05.2019 22:00:00 12,6 7,1 27 15 36 19 NO 1023,6 - 0,0
15.05.2019 21:00:00 12,8 6,4 29 16 39 21 NO 1023,7 - 0,0
15.05.2019 20:00:00 13,7 6,1 29 16 40 21 NO 1023,8 18 0,0
15.05.2019 19:00:00 14,4 7,2 30 16 40 21 NO 1024,2 - 0,0
15.05.2019 18:00:00 14,3 7,1 26 14 36 19 NNO 1024,8 - 0,0
15.05.2019 17:00:00 14,5 8,9 26 14 36 19 NNO 1025,1 20 0,0
15.05.2019 16:00:00 14,8 9,2 26 14 37 20 NNO 1025,6 - 0,0
15.05.2019 15:00:00 14,9 8,8 23 12 30 16 NNO 1026,0 - 0,0
15.05.2019 14:00:00 15,3 9,2 22 12 29 16 NNO 1026,3 - 0,0
15.05.2019 13:00:00 14,8 8,3 19 10 24 13 NNO 1026,6 - 0,0
15.05.2019 12:00:00 14,9 7,9 16 9 20 11 NNO 1027,1 - 0,0
15.05.2019 11:00:00 15,2 7,5 11 6 16 9 NNO 1027,6 15 0,0
15.05.2019 10:00:00 15,2 5,4 12 7 21 12 O 1027,8 - 0,0
15.05.2019 09:00:00 13,3 4,7 16 9 25 13 OZO 1028,0 - 0,0
15.05.2019 08:00:00 11,9 4,8 13 7 20 11 O 1027,9 - 0,0
15.05.2019 07:00:00 10,1 5,7 8 4 18 10 O 1028,0 - 0,0
15.05.2019 06:00:00 9,8 5,6 14 8 26 14 O 1028,0 - 0,0
15.05.2019 05:00:00 10,3 6,8 14 8 26 14 O 1028,0 14 0,0
15.05.2019 04:00:00 11,1 7,0 20 11 30 16 O 1028,2 - 0,0
15.05.2019 03:00:00 11,5 7,6 22 12 34 19 O 1028,3 - 0,0
15.05.2019 02:00:00 12,0 9,6 21 11 34 18 ONO 1028,7 - 0,0
15.05.2019 01:00:00 11,9 9,5 28 15 40 21 ONO 1029,1 - 0,0
15.05.2019 00:00:00 11,7 8,4 32 17 40 22 ONO 1029,4 - 0,0
14.05.2019 23:00:00 11,5 8,4 31 17 39 21 NO 1029,9 - 0,0
14.05.2019 22:00:00 11,3 7,8 31 17 40 22 NO 1030,0 - 0,0
14.05.2019 21:00:00 11,5 7,6 31 17 41 22 NO 1030,1 - 0,0
14.05.2019 20:00:00 12,2 7,3 33 18 45 24 NO 1030,4 17 0,0
14.05.2019 19:00:00 12,7 7,2 34 19 44 24 NO 1030,9 - 0,0
14.05.2019 18:00:00 13,2 7,2 35 19 43 23 NO 1031,5 - 0,0
14.05.2019 17:00:00 13,3 7,1 33 18 45 24 NO 1031,9 15 0,0
14.05.2019 16:00:00 13,0 6,6 34 19 46 25 NO 1032,7 - 0,0
14.05.2019 15:00:00 12,6 6,0 35 19 45 24 NNO 1033,5 - 0,0
14.05.2019 14:00:00 13,7 6,1 33 18 41 22 NO 1034,0 - 0,0
14.05.2019 13:00:00 12,9 5,3 31 17 39 21 NO 1034,6 - 0,0
14.05.2019 12:00:00 12,7 4,9 24 13 33 18 NO 1034,9 - 0,0
14.05.2019 11:00:00 12,3 4,5 26 14 35 19 NO 1035,4 20 0,0
14.05.2019 10:00:00 11,1 4,1 23 12 29 16 NO 1035,8 - 0,0
14.05.2019 09:00:00 10,6 3,8 22 12 33 18 O 1035,8 - 0,0
14.05.2019 08:00:00 9,7 4,3 28 15 36 19 O 1035,8 20 0,0
14.05.2019 07:00:00 8,9 4,3 22 12 35 19 O 1035,7 - 0,0
14.05.2019 06:00:00 9,4 5,0 25 14 40 21 O 1035,9 - 0,0
14.05.2019 05:00:00 10,1 4,9 30 16 39 21 O 1036,1 - 0,0
14.05.2019 04:00:00 10,5 4,4 30 16 41 22 ONO 1036,4 - 0,0

tt = temperatuur
td = dauwpunt
ff = windsnelheid
fx = windstoten
dd = windrichting
ppp = luchtdruk
vv = zicht
rr = neerslag

Weerstations in de omgeving